sat.trackr.live / text

‹ back to catalog

STARLINK-3450

NORAD 51734 · 2022-016W

PAYLOAD ACTIVE UNKNOWN

§ Identity

Operator
Country
US
Launch date
2022-02-21
Launch site
AFETR
Launch vehicle
Mass (kg)
RCS (m²)

Purposes: comms

External: N2YO · Heavens-Above · Gunter

§ Orbital elements

Epoch: 2026-09-20T03:45:05.633280Z

Period
93.85 min
Inclination
53.1592°
Eccentricity
0.0001225
Mean motion
15.34389886 rev/d
Perigee alt
461.9 km
Apogee alt
463.6 km
Semi-major
6,840.9 km
B*
4.5122e-5
RAAN
150.9810°
Arg perigee
96.3394°
Mean anomaly
263.7748°
Rev number
25,311

§ Raw data

STARLINK-34501 51734U 22016W   26263.15631520  .00001148  00000+0  45122-4 0  99942 51734  53.1592 150.9810 0001225  96.3394 263.7748 15.34389886253119

JSON: /api/v1/satellites/51734 · /tle

For live sub-satellite position, see the globe view (requires WebGL).

§ Visibility from observer

Set your observer location to see the next 7 days of passes ≥ 10°. The values pass through the URL so the page stays shareable.

No JS? Fill the form by hand. The geolocation button needs JavaScript.